Weather History for Custer, SD

Change the Weather History Date:

Tuesday, April 22, 2014

  Actual Average Record
Temperature  
Mean Temperature 51 °F 41 °F  
Max Temperature 70 °F 53 °F 81 °F (1989)
Min Temperature 32 °F 29 °F 10 °F (2013)
Degree Days  
Heating Degree Days 14 24  
Month to date heating degree days 576 596  
Since 1 July heating degree days 7486 7471  
Cooling Degree Days 0 0  
Month to date cooling degree days 0 0  
Year to date cooling degree days 0 0  
Moisture  
Dew Point 31 °F    
Average Humidity 44    
Maximum Humidity 69    
Minimum Humidity 19    
Precipitation  
Precipitation T in 0.08 in 0.74 in (1963)
Month to date precipitation 1.21 1.44  
Year to date precipitation 3.74 3.31  
Sea Level Pressure  
Sea Level Pressure 29.75 in    
Wind  
Wind Speed 6 mph (SW)    
Max Wind Speed 18 mph    
Max Gust Speed 28 mph    
Visibility 10 miles    
Events      
T = Trace of Precipitation, MM = Missing Value Source: NWS Daily Summary

Daily Weather History Graph

Daily Weather History Graph

Search for Another Location

Airport:

Trip Planner

Search our weather history database for the weather conditions in past years. The results will help you decide how hot, cold, wet, or windy it might be!

Date:

Astronomy

Apr. 22, 2014 Rise Set
Actual Time 6:00 AM MDT 7:46 PM MDT
Civil Twilight 5:29 AM MDT 8:17 PM MDT
Nautical Twilight 4:52 AM MDT 8:54 PM MDT
Astronomical Twilight 4:12 AM MDT 9:34 PM MDT
Moon 2:04 AM MDT (4/22) 12:37 PM MDT (4/22)
Length of Visible Light 14h 47m
Length of Day
13h 46m
Last Quarter, 45% of the Moon is Illuminated
Apr 22
Last Quarter
Apr 29
New
May 6
First Quarter
May 14
Full
May 21
Last Quarter

Hourly Weather History & Observations

Time (MDT) Temp. Windchill Dew Point Humidity Pressure Visibility Wind Dir Wind Speed Gust Speed Precip Events Conditions
12:53 AM 34.0 °F 29.8 °F 25.0 °F 70% 30.06 in 10.0 mi North 4.6 mph - N/A   Clear
1:53 AM 35.1 °F 32.2 °F 24.1 °F 64% 30.01 in 10.0 mi NNE 3.5 mph - N/A   Clear
2:53 AM 34.0 °F - 24.1 °F 67% 29.98 in 10.0 mi Calm Calm - N/A   Clear
3:53 AM 33.1 °F - 24.1 °F 70% 29.96 in 10.0 mi Calm Calm - N/A   Clear
4:53 AM 33.1 °F 30.0 °F 24.1 °F 70% 29.92 in 10.0 mi NW 3.5 mph - N/A   Clear
5:53 AM 35.1 °F 31.0 °F 23.0 °F 61% 29.89 in 10.0 mi NW 4.6 mph - N/A   Clear
6:53 AM 37.0 °F 33.3 °F 25.0 °F 62% 29.88 in 10.0 mi WNW 4.6 mph - N/A   Clear
7:53 AM 48.9 °F - 28.9 °F 46% 29.84 in 10.0 mi Calm Calm - N/A   Clear
8:53 AM 57.9 °F - 30.9 °F 36% 29.79 in 10.0 mi Calm Calm - N/A   Clear
9:53 AM 64.0 °F - 21.9 °F 20% 29.76 in 10.0 mi Variable 6.9 mph - N/A   Clear
10:53 AM 64.0 °F - 30.0 °F 28% 29.76 in 10.0 mi Variable 4.6 mph - N/A   Partly Cloudy
11:53 AM 66.9 °F - 28.0 °F 23% 29.73 in 10.0 mi SW 10.4 mph 20.7 mph N/A   Clear
12:53 PM 66.9 °F - 33.1 °F 28% 29.72 in 10.0 mi SW 10.4 mph 19.6 mph N/A   Scattered Clouds
1:53 PM 66.0 °F - 34.0 °F 30% 29.70 in 10.0 mi WSW 9.2 mph - N/A   Clear
2:53 PM 68.0 °F - 33.1 °F 27% 29.68 in 10.0 mi WSW 17.3 mph 24.2 mph N/A   Partly Cloudy
3:53 PM 64.9 °F - 35.1 °F 33% 29.66 in 10.0 mi SW 6.9 mph - N/A   Scattered Clouds
4:53 PM 64.0 °F - 35.1 °F 34% 29.67 in 10.0 mi SSW 9.2 mph - N/A   Overcast
5:53 PM 61.0 °F - 37.9 °F 42% 29.67 in 10.0 mi SSW 8.1 mph - 0.00 in   Partly Cloudy
6:53 PM 57.9 °F - 39.0 °F 49% 29.65 in 10.0 mi SSW 5.8 mph - N/A   Overcast
7:53 PM 61.0 °F - 36.0 °F 39% 29.55 in 10.0 mi SE 4.6 mph - N/A   Mostly Cloudy
8:53 PM 57.9 °F - 37.9 °F 47% 29.54 in 10.0 mi SE 8.1 mph - N/A   Clear
9:53 PM 57.0 °F - 39.0 °F 51% 29.52 in 10.0 mi SE 8.1 mph - N/A   Mostly Cloudy
10:53 PM 55.0 °F - 39.9 °F 57% 29.48 in 10.0 mi SE 9.2 mph - N/A   Clear
11:53 PM 54.0 °F - 42.1 °F 64% 29.46 in 10.0 mi SSE 10.4 mph 19.6 mph N/A   Clear